Location: Champignolles
(47.0543°N, 4.5663°E)
Time: 01:54:05
(UTC+00:00)

Envisat - Pass Details

Date: 13 March 2021
Orbit: 764 x 766 km, 98.1° (Epoch: 11 April)

Event Time Altitude Azimuth Distance (km) Brightness Sun altitude
Rises 03:47:36 0° 33° (NNE) 3,242 7.1 -22.7°
Reaches altitude 10° 03:51:50 10° 68° (ENE) 2,307 6.6 -22.0°
Maximum altitude 03:53:22 11° 85° (E) 2,215 6.4 -21.8°
Drops below altitude 10° 03:54:55 10° 103° (ESE) 2,302 6.2 -21.5°
Sets 03:59:06 0° 137° (SE) 3,219 6.5 -20.9°
